Location: Goettingen
(51.5300°N, 9.9433°E)
Time: 09:37:17
(UTC+01:00)

ISS - Pass Details

Date: 23 March 2023
Orbit: 414 x 423 km, 51.6° (Epoch: 20 March)

Event Time Altitude Azimuth Distance (km) Brightness Sun altitude
Rises 21:04:07 0° 278° (W) 2,359 1.1 -22.2°
Reaches altitude 10° 21:06:13 10° 278° (W) 1,494 -0.1 -22.5°
Enters shadow 21:08:40 45° 274° (W) 574 -2.8 -22.8°
